Regional Weather Roundup
Issued by NWS

Home | Current Version | Previous Version | Text Only | Print | Product List | Glossary On
Versions: 1 2 3 4 5 6 7 8 9 10 11 12 13 14 15 16 17 18 19 20 21 22 23 24 25 26 27 28
000
ASUS42 KFFC 310603
RWRGA
WEATHER ROUNDUP FOR GEORGIA
NATIONAL WEATHER SERVICE PEACHTREE CITY GA
200 AM EDT FRI OCT 31 2014

NOTE: "FAIR" INDICATES FEW OR NO CLOUDS BELOW 12,000 FEET WITH NO
SIGNIFICANT WEATHER AND/OR OBSTRUCTIONS TO VISIBILITY.

* = USE WITH CAUTION. THE STATIONS MARKED WITH AN ASTERISK MAY NOT
REPORT WEATHER SUCH AS PRECIPITATION, FOG, OR THUNDER AND ARE NOT
QUALITY CONTROLLED BY NWS.

THE REMARK "TC" DENOTES TEMPERATURE READING IN DEGREES CELSIUS.

GAZ001>058-310700-
NORTH GEORGIA

CITY           SKY/WX    TMP DP  RH WIND       PRES   REMARKS
ATLANTA        PTCLDY    48  41  76 NW7       29.97S
6HR MIN TEMP:  48; 6HR MAX TEMP:  57;

ATHENS         CLEAR     45  42  89 CALM      29.96S
6HR MIN TEMP:  45; 6HR MAX TEMP:  52;

CHAMBLEE       CLEAR     42  39  89 CALM      29.97F
6HR MIN TEMP:  42; 6HR MAX TEMP:  55;

PEACHTREE CITY CLEAR     40  38  93 CALM      29.99S
6HR MIN TEMP:  40; 6HR MAX TEMP:  50;

ROME           CLEAR     40  39  97 CALM      29.99F
6HR MIN TEMP:  40; 6HR MAX TEMP:  52;

WEST ATLANTA   CLEAR     46  40  79 CALM      29.98S
6HR MIN TEMP:  43; 6HR MAX TEMP:  53;

GAINESVILLE    CLEAR     46  40  79 W6        29.97F
6HR MIN TEMP:  45; 6HR MAX TEMP:  55;

CARTERSVILLE   CLEAR     41  39  93 CALM      29.99F
6HR MIN TEMP:  39; 6HR MAX TEMP:  50;



CITY           SKY/WX    TMP DP  RH WIND       PRES   REMARKS
DALTON*        CLEAR     43  41  93 NW6       30.00S
MARIETTA       CLEAR     45  40  85 NW6       29.97S
$$

GAZ059>098-102>109-310700-
CENTRAL GEORGIA

CITY           SKY/WX    TMP DP  RH WIND       PRES   REMARKS
AUGUSTA-BUSH   CLEAR     43  42  97 CALM      29.94F
6HR MIN TEMP:  43; 6HR MAX TEMP:  55;

AUGUSTA-DANIEL CLEAR     55  42  61 N5        29.94F
6HR MIN TEMP:  55; 6HR MAX TEMP:  65;

COLUMBUS       CLEAR     49  41  74 CALM      29.98F
6HR MIN TEMP:  49; 6HR MAX TEMP:  61;

MACON          CLEAR     45  42  89 CALM      29.95F
6HR MIN TEMP:  45; 6HR MAX TEMP:  57;

ROBINS AFB     CLEAR     47  45  92 CALM      29.94S


CITY           SKY/WX    TMP DP  RH WIND       PRES   REMARKS
LAGRANGE*      CLEAR     42  42  99 CALM      29.99S
SYLVANIA*      CLEAR     56  55  96 CALM      29.92F
MILLEDGEVILLE* CLEAR     46  46 100 CALM      29.96S
$$

GAZ099>101-110>166-310700-
SOUTH GEORGIA

CITY           SKY/WX    TMP DP  RH WIND       PRES   REMARKS
SAVANNAH       CLEAR     58  54  86 CALM      29.91F
6HR MIN TEMP:  57; 6HR MAX TEMP:  67;

VALDOSTA       CLEAR     50  44  80 CALM      29.92F
6HR MIN TEMP:  49; 6HR MAX TEMP:  57; 6HR PCP:  0.01;

ALMA           CLEAR     50  48  93 N3        29.91F
6HR MIN TEMP:  50; 6HR MAX TEMP:  60;

ST SIMONS      PTCLDY    63  61  93 N6        29.89F
6HR MIN TEMP:  63; 6HR MAX TEMP:  69;

FT STEWART     CLEAR     53  51  94 CALM      29.89F
ALBANY         CLEAR     52  45  77 CALM      29.98S
HUNTER AFB     CLEAR     60  57  91 N5        29.89F
MOODY AFB      CLEAR     51  46  84 N6        29.92F
BRUNSWICK      CLEAR     61  59  94 N5        29.90F


CITY           SKY/WX    TMP DP  RH WIND       PRES   REMARKS
BAINBRIDGE*    CLEAR     55  46  71 NW7       29.96S
MOULTRIE*      CLEAR     50  50 100 CALM      29.94F
VIDALIA*       CLEAR     54  46  76 CALM      29.93S
WAYCROSS*      CLEAR     56  53  89 CALM      29.92S
DOUGLAS*       CLEAR     57  46  67 N5        29.94S
$$



USA.gov is the U.S. government's official web portal to all federal, state and local government web resources and services.